COSMOS 2499

Satellite information

Favourite Embed

Satellite Type and Status

PAYLOADIN ORBIT

Key statistics

Satellite COSMOS 2499 at a glance.

Uptime

4127

Days in orbit

Revolutions

≈ 12.8

Per day

Orbit

LEO

Low Earth Orbit

Inclination

82.4

Latest

Satellite identification and parameters

Extended collection of information and parameters for COSMOS 2499.

Object identification

Identified? True

Debris? False

Object name: COSMOS 2499

International designator: 2014-028E

Object number (NORAD): 39765

Object ID (CCSDS): 39765

Country: COMMONWEALTH OF INDEPENDENT STATES (CIS)

Current information (Y/N): Y

RCS size: MEDIUM

Orbital parameters

Period: 112.246 minutes

Inclination: 82.4446 deg

SMA: 7707.989 km

Apoapsis: 1507.732 km

Periapsis: 1151.976 km

RAAN: 82.516 deg

Eccentricy: 0.02307708

Argument of periapsis: 303.0973 deg

Mean anomaly: 54.8163 deg

Mean motion: 12.82895127 rev/day

Mean motion (dot): 0.00000027 rev/day2

B* drag term: 0.000066109322 1/REarth

Two-line elements (TLE)

Creation date: Sept. 8, 2025, 6:18 p.m.

Reference frame: TEME

Reference center: EARTH

Epoch: Sept. 8, 2025, 12:10 p.m. UTC

TLE line 0: 0 COSMOS 2499

TLE line 1: 1 39765U 14028E 25251.50749208 .00000027 00000-0 66109-4 0 9990

TLE line 2: 2 39765 82.4446 82.5160 0230771 303.0973 54.8163 12.82895127528903

Live tracking on map

Real-time ground track for satellite COSMOS 2499.

In-orbit conjunctions

There are no conjunctions computed for COSMOS 2499, at the moment. Check back to stay up to date, as we update our databases every day.

Go to all conjunctions

Associated space launch

Classified payload for Russia

COSMOS 2499 was lifted into orbit during the mission ‘Rokot / Briz-KM | 3x Strela-3M (Kosmos 2496, Kosmos 2497, Kosmos 2498) & Kosmos 2499’, on board a Rokot/Briz-KM space rocket.

The launch took place on May 23, 2014, 5:27 a.m. from 133/3 (133L).

For more information about the launch, click the button.

Launch to space Rokot / Briz-KM | 3x Strela-3M (Kosmos 2496, Kosmos 2497, Kosmos 2498) & Kosmos 2499
Rokot / Briz-KM | 3x Strela-3M (Kosmos 2496, Kosmos 2497, Kosmos 2498) & Kosmos 2499

Agency: N/A

Status: Launch Successful

Launch date: May 23, 2014, 5:27 a.m. UTC

Rocket: Rokot/Briz-KM

Launch pad: 133/3 (133L)

Location: Plesetsk Cosmodrome, Russian Federation

...

Latest news about this satellite

There are no fresh news available about this satellite. Check back as we update our databases every day.


Newsletter sign-up

Weekly statistics, charts and insights to help you stay on top of the space industry.